SB KEPS @ AMSAT $ORB13094.N 2Line Orbital Elements 13094.AMSAT
HR AMSAT ORBITAL ELEMENTS FOR AMATEUR SATELLITES IN NASA FORMAT FROM WA5QGD FORT WORTH,TX April 4, 2013 BID: ORB13094.N
DECODE 2-LINE ELSETS WITH THE FOLLOWING KEY: 1 AAAAAU 00 0 0 BBBBB.BBBBBBBB .CCCCCCCC 00000-0 00000-0 0 DDDZ 2 AAAAA EEE.EEEE FFF.FFFF GGGGGGG HHH.HHHH III.IIII JJ.JJJJJJJJKKKKKZ KEY: A-CATALOGNUM B-EPOCHTIME C-DECAY D-ELSETNUM E-INCLINATION F-RAAN G-ECCENTRICITY H-ARGPERIGEE I-MNANOM J-MNMOTION K-ORBITNUM Z-CHECKSUM
TO ALL RADIO AMATEURS BT
AO-07 1 07530U 74089B 13094.54706782 -.00000036 00000-0 45681-4 0 6477 2 07530 101.4269 086.7390 0012345 073.1080 073.3431 12.53595630756555 FO-29 1 24278U 96046B 13092.19183147 -.00000002 00000-0 34846-4 0 844 2 24278 098.5630 160.8916 0350354 001.2337 054.7601 13.52997168821031 SO-33 1 25509U 98061B 13093.51453183 .00000905 00000-0 16491-3 0 4668 2 25509 031.4333 130.3861 0351736 224.2350 249.9363 14.28986569754207 RS-22 1 27939U 03042A 13094.66205435 .00000523 00000-0 10735-3 0 2977 2 27939 097.8001 286.3506 0014382 062.1938 298.0724 14.64371714508535 VO-52 1 28650U 05017B 13093.62160726 .00001644 00000-0 20390-3 0 3862 2 28650 097.5730 116.0461 0026984 163.3251 343.6761 14.83673535428024 HO-68 1 36122U 09072B 13094.62714573 -.00000044 00000-0 00000 0 0 4302 2 36122 100.3148 153.5161 0007635 160.4302 199.7107 13.16303123158733 UO-11 1 14781U 84021B 13094.18666325 .00000780 00000-0 10791-3 0 1426 2 14781 097.9101 156.5329 0009700 161.8254 198.3307 14.80803036562988 AO-16 1 20439U 90005D 13093.47910103 .00000156 00000-0 73761-4 0 7137 2 20439 098.4660 035.2621 0011194 026.4871 091.2797 14.32152661211545 LO-19 1 20442U 90005G 13094.43727020 .00000138 00000-0 66813-4 0 6478 2 20442 098.4349 038.2202 0011880 013.8264 107.3806 14.32365600211874 AO-27 1 22825U 93061C 13093.79836403 .00000118 00000-0 63424-4 0 3508 2 22825 098.6127 038.6343 0009290 141.7504 251.4009 14.29545256 18006 IO-26 1 22826U 93061D 13093.47953481 .00000122 00000-0 64477-4 0 1074 2 22826 098.6065 038.6217 0009880 136.9300 341.7931 14.29827283 18081 GO-32 1 25397U 98043D 13093.61546631 .00000070 00000-0 49031-4 0 379 2 25397 098.4071 064.6492 0002212 129.2853 348.2695 14.23329917765337 NO-44 1 26931U 01043C 13094.10180604 .00000139 00000-0 86206-4 0 2965 2 26931 067.0510 090.4867 0006584 287.0141 107.4438 14.29902321600839 SO-50 1 27607U 02058C 13094.17609247 .00000690 00000-0 12643-3 0 322 2 27607 064.5554 129.4351 0054479 185.8700 233.8122 14.72835341552816 CO-55 1 27844U 03031E 13094.50891944 .00000295 00000-0 15545-3 0 6175 2 27844 098.7022 104.6519 0010961 102.7162 050.6050 14.21181988506265 CO-57 1 27848U 03031J 13093.50812515 .00000253 00000-0 13681-3 0 5616 2 27848 098.7108 103.1385 0010889 110.7691 036.1438 14.20911605506056 AO-51 1 28375U 04025K 13094.66129352 .00000170 00000-0 63708-4 0 5247 2 28375 098.1941 053.1038 0082555 237.9425 227.7299 14.41089419460746 CP3 1 31129U 07012N 13093.98249256 .00000995 00000-0 23415-3 0 4296 2 31129 097.8949 090.8300 0098932 298.6423 118.1437 14.53544205316210 CO-65 1 32785U 08021C 13094.13299258 .00001640 00000-0 20447-3 0 5955 2 32785 097.7592 153.7598 0014762 184.8155 259.0208 14.83683859266898 PRISM 1 33493U 09002B 13094.67439529 .00002941 00000-0 34596-3 0 6819 2 33493 098.2082 249.2425 0019308 072.7734 287.5604 14.85536694227006 SOHLA-1 1 33496U 09002E 13093.40860568 .00000571 00000-0 10301-3 0 104 2 33496 098.1256 209.6648 0006694 188.2379 243.2150 14.70224122224882 SO-67 1 35870U 09049F 13094.77119882 .00004679 00000-0 18286-3 0 9382 2 35870 097.1990 126.1552 0001344 161.8656 319.4469 15.26333597197059 TISAT-1 1 36799U 10035E 13094.71782332 .00001703 00000-0 21607-3 0 9522 2 36799 098.0360 178.9818 0013544 310.4570 049.5474 14.83008457147680 STUDSAT 1 36801U 10035G 13094.49150369 .00006929 00000-0 77163-3 0 6092 2 36801 098.0456 181.2598 0010691 288.0544 202.1419 14.87380864147778 FO-69 1 37227U 0 13058.47095845 .00000509 00000-0 79251-4 0 00791 2 37227 071.9702 108.5053 0016475 214.8087 145.2122 14.77380366012706 FO-70 1 37380U 0 13057.30123492 -.00000046 00000-0 14930-5 0 00760 2 37380 071.9749 111.9690 0018455 208.9506 151.0634 14.77121324012601 ALMASAT-1 1 38078U 12006B 13094.72713280 .00014352 00000-0 36039-3 0 1476 2 38078 069.4867 010.9808 0714875 240.7372 112.0481 14.20752434 58799 XATCOBEO 1 38082U 12006F 13094.72676228 .00043010 33831-5 88427-3 0 520 2 38082 069.4825 353.4879 0623241 231.1185 123.2910 14.44492328 59277 NOAA-10 1 16969U 86073A 13094.54479909 .00000123 00000-0 67475-4 0 3026 2 16969 098.5518 123.9655 0013504 102.3842 045.4620 14.27624327381431 NOAA-11 1 19531U 88089A 13094.27072486 .00000049 00000-0 47301-4 0 3047 2 19531 098.7119 179.0411 0012366 112.7484 280.3721 14.15007347265675 NOAA-12 1 21263U 91032A 13094.50402485 .00000072 00000-0 48916-4 0 7768 2 21263 098.7028 120.4538 0014826 076.9789 083.4454 14.25553847138059 MET-3/5 1 21655U 91056A 13093.80172163 .00000088 00000-0 19603-3 0 6573 2 21655 082.5540 306.8599 0012366 318.4591 041.5591 13.17044530 40146 MET-2/21 1 22782U 93055A 13094.14788034 -.00000003 00000-0 -16317-4 0 7046 2 22782 082.5500 161.6660 0023286 060.1481 358.5199 13.83701777989404 OKEAN-4 1 23317U 94066A 13094.18145878 .00001203 00000-0 13988-3 0 1822 2 23317 082.5364 119.0556 0022975 110.6029 317.5480 14.84320851997961 NOAA-14 1 23455U 94089A 13094.42052519 -.00000025 00000-0 99206-5 0 2604 2 23455 098.8036 179.9725 0009380 201.4378 297.8885 14.13899798941943 NOAA-15 1 25338U 98030A 13094.44970964 .00000181 00000-0 96014-4 0 6813 2 25338 098.7207 085.0730 0010130 348.3435 158.8661 14.25194588774330 RESURS 1 25394U 98043A 13093.69420412 .00000001 00000-0 18047-4 0 3428 2 25394 098.3554 073.1315 0002596 105.9734 358.7680 14.24325061765755 FENGYUN1 1 25730U 99025A 13093.90007008 .00001555 00000-0 89903-3 0 8427 2 25730 098.8736 054.3516 0022500 255.4968 138.1239 14.10335062715579 OKEAN-0 1 25860U 99039A 13094.50438920 .00000612 00000-0 99551-4 0 9104 2 25860 097.9828 057.9787 0001740 080.2420 069.7715 14.74524308737490 NOAA-16 1 26536U 00055A 13094.41645777 .00000279 00000-0 17461-3 0 1576 2 26536 099.0506 146.4232 0009938 348.6808 131.6647 14.12854368646153 NOAA-17 1 27453U 02032A 13094.48052913 .00000192 00000-0 10026-3 0 813 2 27453 098.3157 112.4601 0011866 028.4121 134.5074 14.24548969560222 NOAA-18 1 28654U 05018A 13094.46047044 .00000245 00000-0 15962-3 0 5639 2 28654 099.0925 061.6473 0015145 058.9545 093.3708 14.11791187405650 NOAA-19 1 33591U 09005A 13094.52496319 .00000256 00000-0 16580-3 0 7513 2 33591 098.8987 037.1918 0013009 278.4652 188.6976 14.11478624214109 HUBBLE 1 20580U 90037B 13094.11849729 .00002313 00000-0 15368-3 0 2091 2 20580 028.4710 038.3181 0003086 283.0604 156.1290 15.03421855 58532 ISS 1 25544U 98067A 13095.06956752 .00000334 00000-0 13183-4 0 5466 2 25544 051.6457 111.2662 0010616 106.5150 307.9038 15.51991763823359 CO-58 1 28895U 05043F 13094.60499243 .00000783 00000-0 16830-3 0 4431 2 28895 097.8796 313.4903 0016465 316.8326 076.8493 14.61017808396207 FALCON 1 30776U 07006E 13092.99032002 .00007117 00000-0 43181-3 0 5831 2 30776 035.4313 303.5093 0001730 344.1226 131.8145 15.09935009334048 MAST 1 31126U 07012K 13093.98759866 .00000643 00000-0 15318-3 0 7203 2 31126 097.8792 094.1573 0091884 284.1439 130.4213 14.54490161316534 CAPE1 1 31130U 07012P 13093.48882873 .00000885 00000-0 20994-3 0 7303 2 31130 097.8953 090.0142 0099367 301.0689 058.0784 14.53378120315924 COMPASS 1 32787U 08021E 13094.17614363 .00002753 00000-0 32710-3 0 5861 2 32787 097.7602 154.6468 0015164 181.2408 212.5965 14.85153875266983 AAUSAT2 1 32788U 08021F 13093.80883190 .00002730 00000-0 32116-3 0 5738 2 32788 097.7608 154.8590 0014742 182.3301 242.8935 14.85583229266964 DO-64 1 32789U 08021G 13094.15355233 .00004539 00000-0 50043-3 0 6009 2 32789 097.7753 158.5496 0014518 175.4921 237.1823 14.87915694267112 CO-66 1 32791U 08021J 13094.17153497 .00002169 00000-0 26405-3 0 5700 2 32791 097.7601 154.0980 0015759 182.8619 239.6868 14.84358514266899 RS-30 1 32953U 08025A 13094.57551682 .00000010 00000-0 00000 0 0 7373 2 32953 082.4984 113.9712 0019747 036.8512 323.3923 12.43032707220767 METEOR-M 1 35865U 09049A 13094.69026614 -.00000021 00000-0 99692-5 0 3381 2 35865 098.6104 148.8902 0001786 305.2496 054.8517 14.21882202184025 RS-38 1 35869U 09049E 13094.66562937 .00000028 00000-0 32185-4 0 3126 2 35869 098.6050 148.8012 0004005 296.5530 063.5243 14.22119114184040 JUGNU 1 37839U 11058B 13093.96445426 .00000456 00000-0 10203-3 0 3607 2 37839 019.9629 036.5044 0019048 185.4512 240.5097 14.12137136 76399 SRMSAT 1 37841U 11058D 13093.14339027 .00000397 00000-0 73914-4 0 3613 2 37841 019.9731 052.0500 0012008 131.7219 299.8475 14.10210079 76161 RAX-2 1 37853U 11061D 13093.71137576 .00008521 00000-0 64947-3 0 4655 2 37853 101.7173 272.8765 0238233 240.7973 250.7635 14.82675952 77403 AUBIESAT 1 37854U 11061E 13094.49362794 .00008257 00000-0 61775-3 0 4634 2 37854 101.7208 274.7390 0238404 237.3772 155.8249 14.83309508 77539 HRBE 1 37855U 11061F 13094.48721403 .00007366 00000-0 55485-3 0 4608 2 37855 101.7207 274.5432 0239291 237.7746 183.2411 14.83025132 77527 RS-39 1 38051U 11062C 13094.79852167 .00013515 00000-0 46396-3 0 3179 2 38051 051.6361 204.2099 0012263 001.4540 137.1264 15.30366185 66537 E-STAR 1 38079U 12006C 13094.73565364 .00022840 31510-5 49065-3 0 216 2 38079 069.4879 357.7646 0652886 233.5844 120.3263 14.37693584 59151 GOLIAT 1 38085U 12006J 13094.71341420 .00023972 31486-5 51419-3 0 9467 2 38085 069.4890 359.4647 0660741 234.5127 119.2762 14.36012154 59108 HORYU-2 1 38340U 12025D 13093.88438327 .00001084 00000-0 18594-3 0 4456 2 38340 098.2117 040.9343 0013368 124.3475 235.9054 14.70723446 47195 RS-40 1 38736U 12041D 13093.77511264 .00000010 00000-0 00000 0 0 2290 2 38736 082.4805 201.5094 0021714 122.8101 237.5078 12.43229749 31006 PROITERES 1 38756U 12047B 13094.67426296 .00000519 00000-0 86774-4 0 6563 2 38756 098.2568 170.3566 0012372 346.6295 013.4587 14.74127071 30563 RAIKO 1 38852U 98067CN 13094.15920354 .00074188 00000-0 71410-3 0 1820 2 38852 051.6397 107.5252 0015577 079.2034 281.0714 15.65719334 28222 FITSAT 1 1 38853U 98067CP 13094.24693813 .00105207 00000-0 86448-3 0 1844 2 38853 051.6414 105.1314 0012554 086.5888 273.6545 15.69512865 28319 TechEdSat 1 38854U 98067CQ 13094.44002818 .00278720 00000-0 12838-2 0 2153 2 38854 051.6347 098.8422 0012090 084.3114 275.9267 15.82154761 28415 F 1 1 38855U 98067CR 13094.24243190 .00247368 00000-0 12501-2 0 2120 2 38855 051.6332 100.5175 0011896 083.5349 276.7007 15.80235887 28261 WeWish 1 38856U 98067CS 13069.98095549 .16701328 12537-4 10063-2 0 2487 2 38856 051.6166 215.0521 0008325 316.0438 044.8765 16.41348316 24586 /EX
participants (1)
-
Ray Hoad